• Join FlightAware (Why Join?)
  • Login
  • US Flag 
09:26PM EDT


 

Airport Tracker/Info


-or-


 

Live Flight TrackerFlight Track Log ✈ EJA846 ✈ 30-Apr-2013 ✈ KVRB - KHPN

Flight Track Log - Related Links

Times and Time Zones

All times are in EDT time to prevent confusion due to time zone crossing. See the EJA846 flight status page for this flight to view local times or setup timezone preferences in your user account.

Time Position Orientation Groundspeed Altitude Reporting Facility
EDT Latitude Longitude Course Direction KTS MPH feet Rate Location/Type
09:35AM 27.6475 -80.3944 330° Northwest 411 473 1,100  Level Miami Center
09:36AM 27.6639 -80.3292 74° East 242 278 3,000 2,280 Climbing Miami Center
09:37AM 27.7008 -80.2647 57° Northeast 227 261 5,700 2,880 Climbing Miami Center
09:38AM 27.7583 -80.3017 330° Northwest 186 214 8,800 2,460 Climbing Miami Center
09:39AM 27.7814 -80.3892 287° West 222 255 10,700 2,940 Climbing Miami Center
09:40AM 28.2287 -80.7969 330° Northwest  Level FlightAware Approximate
09:40AM 27.8144 -80.4817 292° West 269 310 14,700  Level Miami Center
09:41AM 27.8417 -80.5672 290° West 288 331 17,300 2,160 Climbing Miami Center
09:42AM 27.8603 -80.6475 285° West 294 338 19,100 1,860 Climbing Miami Center
09:43AM 27.8850 -80.7447 286° West 306 352 21,100 1,920 Climbing Miami Center
09:44AM 27.9136 -80.8419 288° West 320 368 23,000 2,100 Climbing Miami Center
09:45AM 27.9422 -80.9417 288° West 326 375 25,400 1,860 Climbing Miami Center
09:46AM 27.9750 -81.0344 292° West 326 375 26,800 1,620 Climbing Miami Center
09:47AM 28.0092 -81.1439 289° West 332 382 28,700 2,100 Climbing Miami Center
09:48AM 28.0442 -81.2322 294° West 323 372 31,000 1,860 Climbing Miami Center
09:49AM 28.1156 -81.2892 325° Northwest 310 357 32,500 1,500 Climbing Miami Center
09:50AM 28.2047 -81.3022 353° North 315 362 34,100 1,800 Climbing Miami Center
09:51AM 28.3108 -81.3133 355° North 335 386 36,100 1,500 Climbing Miami Center
09:52AM 28.3942 -81.3214 355° North 335 386 37,200 1,200 Climbing Miami Center
09:53AM 28.4919 -81.3300 356° North 342 394 38,500 900 Climbing Miami Center
09:54AM 28.5875 -81.3408 354° North 348 400 39,000 240 Climbing Miami Center
09:55AM 28.6894 -81.3494 356° North 352 405 39,000  Level Jacksonville Center
09:56AM 28.8003 -81.3619 354° North 376 433 39,000  Level Jacksonville Center
09:57AM 28.9131 -81.3744 354° North 394 453 39,000  Level Jacksonville Center
09:58AM 29.0322 -81.3822 357° North 409 471 39,000  Level Jacksonville Center
09:59AM 29.1450 -81.3972 353° North 414 476 39,000  Level Jacksonville Center
10:00AM 29.2619 -81.4050 357° North 414 476 39,000  Level Jacksonville Center
10:01AM 29.3750 -81.4197 354° North 414 476 39,000  Level Jacksonville Center
10:02AM 29.4961 -81.4300 356° North 402 463 39,000  Level Jacksonville Center
10:03AM 29.6089 -81.4403 355° North 402 463 39,000  Level Jacksonville Center
10:04AM 29.7219 -81.4506 355° North 407 468 39,000  Level Jacksonville Center
10:05AM 29.8367 -81.4608 356° North 407 468 39,000  Level Jacksonville Center
10:06AM 29.9517 -81.4733 355° North 407 468 39,000  Level Jacksonville Center
10:07AM 30.0625 -81.4839 355° North 407 468 39,000  Level Jacksonville Center
10:08AM 30.1775 -81.4942 356° North 407 468 39,000  Level Jacksonville Center
10:09AM 30.2944 -81.4972 359° North 407 468 39,000  Level Jacksonville Center
10:10AM 30.4111 -81.4764 North 407 468 39,000  Level Jacksonville Center
10:11AM 30.5194 -81.4578 North 421 484 39,000  Level Jacksonville Center
10:12AM 30.6342 -81.4417 North 426 490 39,000  Level Jacksonville Center
10:13AM 30.7486 -81.4253 North 421 484 39,000  Level Jacksonville Center
10:14AM 30.8592 -81.4019 10° North 415 478 39,000  Level Jacksonville Center
10:15AM 30.9669 -81.3394 26° Northeast 408 470 39,000  Level Jacksonville Center
10:16AM 31.0725 -81.2700 29° Northeast 415 478 39,000  Level Jacksonville Center
10:17AM 31.1781 -81.2000 30° Northeast 425 489 39,000  Level Jacksonville Center
10:18AM 31.2817 -81.1278 31° Northeast 430 495 39,000  Level Jacksonville Center
10:19AM 31.3869 -81.0575 30° Northeast 435 501 39,000  Level Jacksonville Center
10:20AM 31.5069 -80.9822 28° Northeast 440 506 39,000  Level Jacksonville Center
10:21AM 31.6019 -80.9144 31° Northeast 441 507 39,000  Level Jacksonville Center
10:22AM 31.7239 -80.8336 29° Northeast 441 507 39,000  Level Jacksonville Center
10:23AM 31.8314 -80.7653 28° Northeast 441 507 39,000  Level Jacksonville Center
10:24AM 31.9303 -80.6967 30° Northeast 441 507 39,000  Level Jacksonville Center
10:25AM 32.0522 -80.6181 29° Northeast 441 507 39,000  Level Jacksonville Center
10:26AM 32.1572 -80.5442 31° Northeast 441 507 39,000  Level Jacksonville Center
10:27AM 32.2644 -80.4700 30° Northeast 440 506 39,000  Level Jacksonville Center
10:28AM 32.3717 -80.3961 30° Northeast 440 506 39,000  Level Jacksonville Center
10:29AM 32.4808 -80.3217 30° Northeast 447 514 39,000  Level Jacksonville Center
10:30AM 32.5817 -80.2547 29° Northeast 447 514 39,000  Level Jacksonville Center
10:31AM 32.6864 -80.1800 31° Northeast 447 514 39,000  Level Jacksonville Center
10:32AM 32.7933 -80.1050 31° Northeast 441 507 39,000  Level Jacksonville Center
10:33AM 32.8983 -80.0303 31° Northeast 441 507 39,000  Level Jacksonville Center
10:34AM 33.0050 -79.9525 31° Northeast 441 507 39,000  Level Jacksonville Center
10:35AM 33.1117 -79.8794 30° Northeast 441 507 39,000  Level Jacksonville Center
10:36AM 33.2183 -79.8014 31° Northeast 441 507 39,000  Level Jacksonville Center
10:37AM 33.3231 -79.7256 31° Northeast 441 507 39,000  Level Jacksonville Center
10:38AM 33.4275 -79.6472 32° Northeast 441 507 39,000  Level Jacksonville Center
10:39AM 33.5319 -79.5736 30° Northeast 436 502 39,000  Level Jacksonville Center
10:40AM 33.6342 -79.4975 32° Northeast 436 502 39,000  Level Jacksonville Center
10:41AM 33.7467 -79.4133 32° Northeast 434 499 39,000  Level Jacksonville Center
10:42AM 33.8511 -79.3392 31° Northeast 434 499 39,000  Level Jacksonville Center
10:43AM 33.9511 -79.2625 32° Northeast 434 499 39,000  Level Jacksonville Center
10:45AM 34.1683 -79.1033 31° Northeast 458 527 39,000  Level Washington Center
10:46AM 34.2708 -79.0247 32° Northeast 458 527 39,000  Level Washington Center
10:47AM 34.3753 -78.9461 32° Northeast 453 521 39,000  Level Washington Center
10:48AM 34.4797 -78.8672 32° Northeast 448 516 39,000  Level Washington Center
10:49AM 34.5842 -78.7856 33° Northeast 448 516 39,000  Level Washington Center
10:50AM 34.6864 -78.7036 33° Northeast 443 510 39,000  Level Washington Center
10:51AM 34.7928 -78.6244 31° Northeast 443 510 39,000  Level Washington Center
10:52AM 34.8906 -78.5469 33° Northeast 436 502 39,000  Level Washington Center
10:53AM 34.9928 -78.4669 33° Northeast 436 502 39,000  Level Washington Center
10:54AM 35.0947 -78.3894 32° Northeast 430 495 39,000  Level Washington Center
10:55AM 35.1989 -78.3117 31° Northeast 430 495 39,000  Level Washington Center
10:56AM 35.2986 -78.2336 33° Northeast 430 495 39,000  Level Washington Center
10:57AM 35.4006 -78.1556 32° Northeast 425 489 39,000  Level Washington Center
10:58AM 35.5022 -78.0772 32° Northeast 425 489 39,000  Level Washington Center
10:59AM 35.6019 -77.9983 33° Northeast 425 489 39,000  Level Washington Center
11:00AM 35.6994 -77.9219 32° Northeast 420 483 39,000 -60 Level Washington Center
11:01AM 35.8011 -77.8456 31° Northeast 420 483 38,900  Descending Washington Center
11:02AM 35.9006 -77.7664 33° Northeast 420 483 39,000  Climbing Washington Center
11:03AM 35.9958 -77.6844 35° Northeast 420 483 39,000  Level Washington Center
11:04AM 36.0872 -77.5942 39° Northeast 420 483 39,000  Level Washington Center
11:05AM 36.1783 -77.4989 40° Northeast 420 483 39,000  Level Washington Center
11:06AM 36.2611 -77.4081 41° Northeast 413 475 39,000  Level Washington Center
11:07AM 36.3522 -77.3172 39° Northeast 408 470 39,000  Level Washington Center
11:08AM 36.4414 -77.2186 42° Northeast 414 476 39,000  Level Washington Center
11:09AM 36.5303 -77.1222 41° Northeast 414 476 39,000  Level Washington Center
11:10AM 36.6211 -77.0256 40° Northeast 414 476 39,000  Level Washington Center
11:11AM 36.7097 -76.9314 40° Northeast 414 476 39,000  Level Washington Center
11:12AM 36.8006 -76.8344 41° Northeast 414 476 39,000  Level Washington Center
11:13AM 36.8911 -76.7372 41° Northeast 414 476 39,000  Level Washington Center
11:14AM 36.9922 -76.6269 41° Northeast 424 488 39,000  Level Washington Center
11:15AM 37.0828 -76.5317 40° Northeast 424 488 39,000  Level Washington Center
11:16AM 37.1733 -76.4339 41° Northeast 424 488 39,000  Level Washington Center
11:17AM 37.2614 -76.3381 41° Northeast 424 488 39,000  Level Washington Center
11:18AM 37.3497 -76.2397 41° Northeast 424 488 39,000  Level Washington Center
11:19AM 37.4419 -76.1489 38° Northeast 419 482 39,000  Level Washington Center
11:20AM 37.5300 -76.0528 41° Northeast 414 476 39,000  Level Washington Center
11:21AM 37.6178 -75.9561 41° Northeast 419 482 39,000  Level Washington Center
11:22AM 37.7078 -75.8622 40° Northeast 419 482 39,000  Level Washington Center
11:23AM 37.7956 -75.7600 43° Northeast 414 476 39,000  Level Washington Center
11:24AM 37.8833 -75.6628 41° Northeast 414 476 39,000  Level Washington Center
11:25AM 37.9708 -75.5681 40° Northeast 414 476 39,000  Level Washington Center
11:26AM 38.0583 -75.4706 41° Northeast 409 471 39,000  Level Washington Center
11:27AM 38.1606 -75.4042 27° Northeast 409 471 39,000  Level Washington Center
11:28AM 38.2625 -75.3431 25° Northeast 404 465 39,000  Level Washington Center
11:29AM 38.3583 -75.2739 30° Northeast 399 459 39,000  Level Washington Center
11:30AM 38.4603 -75.2125 25° Northeast 399 459 39,000  Level Washington Center
11:31AM 38.5622 -75.1431 28° Northeast 399 459 39,000  Level Washington Center
11:32AM 38.6642 -75.0811 25° Northeast 404 465 39,000  Level Washington Center
11:33AM 38.7681 -75.0139 27° Northeast 404 465 39,000  Level Washington Center
11:34AM 38.8719 -74.9492 26° Northeast 404 465 39,000 -180 Level Washington Center
11:35AM 38.9736 -74.8786 28° Northeast 404 465 38,700 -1,260 Descending Washington Center
11:36AM 39.0775 -74.8136 26° Northeast 404 465 36,600 -2,100 Descending Washington Center
11:37AM 39.1664 -74.7297 36° Northeast 398 458 34,500 -2,220 Descending Washington Center
11:38AM 39.2575 -74.6319 40° Northeast 405 466 32,200 -2,280 Descending Washington Center
11:40AM 39.4436 -74.4431 38° Northeast 427 491 27,600 -2,280 Descending New York Center
11:41AM 39.5364 -74.3428 40° Northeast 433 498 25,300 -1,920 Descending New York Center
11:42AM 39.6244 -74.2531 38° Northeast 428 493 23,900 -1,320 Descending New York Center
11:43AM 39.7106 -74.1603 40° Northeast 406 467 22,700 -1,380 Descending New York Center
11:44AM 39.7944 -74.0697 40° Northeast 401 461 21,100 -900 Descending New York Center
11:45AM 39.8911 -74.0392 14° North 355 409 20,900 -60 Descending New York Center
11:46AM 39.9911 -74.0411 359° North 349 402 21,000 -360 Climbing New York Center
11:47AM 40.0650 -73.9361 47° Northeast 354 407 20,300 -780 Descending New York Center
11:49AM 40.1817 -73.7464 51° Northeast 361 415 19,000 -780 Descending Boston Center
11:50AM 40.2475 -73.6444 50° Northeast 366 421 18,300 -600 Descending Boston Center
11:51AM 40.3153 -73.5422 49° Northeast 366 421 17,900 -600 Descending Boston Center
11:52AM 40.3847 -73.4508 45° Northeast 366 421 17,200 -480 Descending Boston Center
11:53AM 40.4789 -73.4194 14° North 339 390 17,000 -120 Descending Boston Center
11:54AM 40.5750 -73.3853 15° North 339 390 17,000  Level Boston Center
11:55AM 40.6711 -73.3514 15° North 345 397 17,000 -900 Level Boston Center
11:56AM 40.7833 -73.3000 19° North 360 414 15,200 -900 Descending New York TRACON
11:57AM 40.8500 -73.2000 49° Northeast 353 406 15,100 -1,140 Descending New York TRACON
11:58AM 40.9000 -73.1000 56° Northeast 349 402 13,000 -2,100 Descending New York TRACON
11:59AM 40.9333 -73.0000 66° East 277 319 11,000 -1,860 Descending New York TRACON
12:00PM 41.0000 -73.0000 360° North 290 334 9,300 -1,740 Descending New York TRACON
12:01PM 41.0500 -73.0833 309° West 288 331 7,600 -1,740 Descending New York TRACON
12:02PM 41.0833 -73.1833 294° West 280 322 5,900 -1,680 Descending New York TRACON
12:03PM 41.1000 -73.2667 285° West 271 312 4,300 -900 Descending New York TRACON
12:04PM 41.1333 -73.3667 294° West 271 312 4,100 -180 Descending New York TRACON
12:05PM 41.1667 -73.4500 298° West 268 308 4,000 -900 Descending New York TRACON
12:06PM 41.1667 -73.5500 270° West 263 303 2,300 -960 Descending New York TRACON
12:07PM 41.1667 -73.6333 270° West 222 255 2,100 -120 Descending New York TRACON
12:08PM 41.1500 -73.7167 255° West 191 220 2,100  Level New York TRACON